Great Falls, MT

11:57 PM MST on February 24, 2018 (GMT -0700)
Great Falls International

Weather History for KGTF - March, 2013

Change the Weather History Date:

Monday, March 25, 2013

  Actual Average Record
Temperature  
Mean Temperature 35 °F 37 °F  
Max Temperature 50 °F 49 °F 73 °F (1999)
Min Temperature 20 °F 25 °F -17 °F (1955)
Degree Days  
Heating Degree Days 30 28  
Month to date heating degree days 766 792  
Since 1 July heating degree days 5579 6297  
Cooling Degree Days 0 0  
Month to date cooling degree days 0 0  
Year to date cooling degree days 0 0  
Moisture  
Dew Point 10 °F    
Average Humidity 37    
Maximum Humidity 57    
Minimum Humidity 16    
Precipitation  
Precipitation 0.00 in 0.03 in 0.45 in (1940)
Month to date precipitation 0.24 0.69  
Year to date precipitation 1.28 1.67  
Snow  
Snow 0.00 in 0.40 in 4.50 in (1940)
Month to date snowfall 4.0 9.5  
Since 1 July snowfall 59.8 49.5  
Snow Depth 0.00 in    
Sea Level Pressure  
Sea Level Pressure 30.16 in    
Wind  
Wind Speed 9 mph (South)    
Max Wind Speed 17 mph    
Max Gust Speed 22 mph    
Visibility 10 miles    
Events      
T = Trace of Precipitation, MM = Missing Value Source: NWS Daily Summary

Daily Weather History Graph

Daily Weather History Graph

Search for Another Location

Airport or City:

Trip Planner

Search our weather history database for the weather conditions in past years. The results will help you decide how hot, cold, wet, or windy it might be!

Date:

Astronomy

Mar. 25, 2013 Rise Set
Actual Time 7:17 AM MDT 7:45 PM MDT
Civil Twilight 6:46 AM MDT 8:16 PM MDT
Nautical Twilight 6:10 AM MDT 8:53 PM MDT
Astronomical Twilight 5:32 AM MDT 9:31 PM MDT
Moon 6:17 PM MDT 6:08 AM MDT
Length of Visible Light 13h 29m
Length of Day
12h 28m
Waxing Gibbous, 97% of the Moon is Illuminated
Mar 25
Waxing Gibbous
Mar 27
Full
Apr 2
Last Quarter
Apr 10
New
Apr 18
First Quarter

Hourly Weather History & Observations

Time (MDT) Temp. Windchill Dew Point Humidity Pressure Visibility Wind Dir Wind Speed Gust Speed Precip Events Conditions
12:53 AM 24.1 °F 14.4 °F 10.0 °F 55% 30.28 in 10.0 mi South 9.2 mph - N/A   Clear
1:53 AM 21.9 °F 11.0 °F 9.0 °F 58% 30.28 in 10.0 mi SSW 10.4 mph - N/A   Clear
2:53 AM 26.1 °F 15.0 °F 9.0 °F 49% 30.25 in 10.0 mi South 12.7 mph - N/A   Clear
3:53 AM 24.1 °F 14.4 °F 9.0 °F 53% 30.24 in 10.0 mi SSW 9.2 mph - N/A   Clear
4:53 AM 24.1 °F 13.7 °F 9.0 °F 53% 30.23 in 10.0 mi South 10.4 mph - N/A   Clear
5:53 AM 21.9 °F 11.7 °F 8.1 °F 55% 30.24 in 10.0 mi South 9.2 mph - N/A   Clear
6:53 AM 21.9 °F 11.7 °F 8.1 °F 55% 30.24 in 10.0 mi South 9.2 mph - N/A   Clear
7:53 AM 25.0 °F 14.8 °F 9.0 °F 51% 30.24 in 10.0 mi South 10.4 mph - N/A   Clear
8:53 AM 30.0 °F 19.1 °F 10.0 °F 43% 30.23 in 10.0 mi SSW 15.0 mph - N/A   Clear
9:53 AM 34.0 °F 24.2 °F 10.9 °F 38% 30.21 in 10.0 mi SSW 15.0 mph - N/A   Clear
10:53 AM 37.9 °F 32.7 °F 10.0 °F 32% 30.20 in 10.0 mi SSW 6.9 mph - N/A   Clear
11:53 AM 41.0 °F 33.9 °F 9.0 °F 27% 30.17 in 10.0 mi SW 12.7 mph - N/A   Clear
12:53 PM 44.1 °F 37.7 °F 9.0 °F 24% 30.14 in 10.0 mi WSW 12.7 mph - N/A   Clear
1:53 PM 46.0 °F 40.6 °F 9.0 °F 22% 30.13 in 10.0 mi SSW 11.5 mph 17.3 mph N/A   Clear
2:53 PM 46.9 °F - 9.0 °F 21% 30.10 in 10.0 mi Variable 3.5 mph - N/A   Clear
3:53 PM 48.0 °F - 10.0 °F 22% 30.09 in 10.0 mi South 8.1 mph - N/A   Clear
4:53 PM 48.9 °F - 10.0 °F 21% 30.07 in 10.0 mi WSW 6.9 mph - N/A   Clear
5:53 PM 50.0 °F - 7.0 °F 18% 30.06 in 10.0 mi Calm Calm - N/A   Clear
6:53 PM 46.9 °F - 8.1 °F 21% 30.06 in 10.0 mi NNE 4.6 mph - N/A   Clear
7:53 PM 37.0 °F 31.0 °F 9.0 °F 31% 30.09 in 10.0 mi NNE 8.1 mph - N/A   Clear
8:53 PM 37.0 °F 28.9 °F 10.9 °F 34% 30.07 in 10.0 mi ENE 12.7 mph - N/A   Clear
9:53 PM 35.1 °F 28.6 °F 12.9 °F 40% 30.07 in 10.0 mi ENE 8.1 mph - N/A   Clear
10:53 PM 32.0 °F 27.5 °F 12.9 °F 45% 30.06 in 10.0 mi ESE 4.6 mph - N/A   Clear
11:53 PM 28.0 °F - 12.9 °F 53% 30.06 in 10.0 mi Calm Calm - N/A   Clear